Конкурсы

Конкурсы

Конкурсы

Оперативная информация по конкурсным закупкам, проводимым на ОАО «БМЗ — управляющая компания холдинга «БМК», на сайте "Национального центра маркетинга и конъюнктуры цен" www.icetrade.by

Краткое описание предмета закупки Номер Стоимость* Предложения до
выполнение строительно-монтажных работ по объектам:ЭСПЦ-1. Площадка для обслуживания мотор-редуктора градирни ПК;ЭСПЦ-1. Площадка для обслуживания коллектора пылеосадительной камеры ДСП-2;ЭСПЦ-1. Расширение площадки для обслуживания рукавов системы охлаждения ДСП-1;ЭСПЦ-2. Установка монорельса для демонтажа-монтажа электродвигателей 55кВт гидравлики тянуще-правильных клетей МНЛЗ-3; ЭСПЦ-1. Установка крана консольно-поворотного г/п 0,5т; ЭСПЦ-1. Установка тали для монтажа контргруза главного конвейера; ЭСПЦ-2. Отведение стоков от водокольцевого насоса вакууматора VD/RH; ЦРМО. Устройство фундамента для установки модернизированного координатного сверлильно-фрейзерно-расточного станка модели 24К40СФ4; СПЦ-2. Усиление опорной конструкции загрузочной решетки шлифовального станка на участке КС-21; ЭСПЦ-1. Оборудование подины ДСП-2 дополнительными датчиками температуры; МСЧ. Устройство отдела кулинарии в корпусе №1 2021-890058 83 003.07 BYN 19.04.2021
строительство объекта «под ключ»: «Перевод ДСП-3 на двухконтурную систему охлаждения» 2021-887678 2 848 686.60 BYN 19.04.2021
Закупка подшипников 2021-890255 46 596.41 USD 19.04.2021
Выполнение работ по демонтажу-монтажу оборудования РИП и радиационный контроль оборудования на МНЛЗ-1 ЭСПЦ-1 2021-890507 28 381.98 BYN 19.04.2021
Закупка запасных частей для насосов согласно приглашению к процедуре закупки №42/3382 от 08.04.2021 2021-889752 68 587.08 USD 19.04.2021
Металлоконструкции согласно приглашению к процедуре закупки № 42/3225 от 05.04.2021 2021-888596 105 484.37 USD 19.04.2021
Закупка буры 2021-889165 52 175.50 USD 19.04.2021
Запасные части упаковочной машины 2021-888751 66 985.49 EUR 19.04.2021
закупка шлакообразующих смесей 2021-891157 113 921.10 EUR 20.04.2021
Корундографитовые погружные стаканы для ЭСПЦ-1,2 2021-891057 675 971.60 USD 20.04.2021
Закупка фильтров 2021-891568 68 365.70 BYN 21.04.2021
Закупка материала мягк. огнестойк. рулон толщ.40 мм или аналога, керамического б/а мата POWERthermHA, 50 мм или аналога 2021-889327 25 452.70 USD 21.04.2021
Закупка емкости прицепной МЖТ-Ф-11 согласно ТЗ 2021-890472 30 416.66 BYN 21.04.2021
Выбор подрядной организации на разработку обоснования инвестиций по проекту «Возведение завода по производству мелющих шаров в г. Орша», согласно прилагаемому заданию на обоснование инвестиций №11 от 09.04.2021 2021-892304 42 021 BYN 22.04.2021
подшипники 2021-891394 19 962.26 USD 22.04.2021
Защитные кварцевые трубы и уплотнительная вставка для ЭСПЦ-1,2 2021-891830 171 736.17 USD 22.04.2021
Закупка карданных валов согласно чертежам и техническому заданию 2021-891084 96 236.20 USD 22.04.2021
Системы для цифровой печати и сканирования 2021-891192 26 993.33 USD 22.04.2021
Высоковольтный элегазовый выключатель напряжением 330 кВ, (конкурс №42-3047) 2021-887968 232 234 EUR 23.04.2021
закупка инструмента 2021-892148 17 944.95 USD 23.04.2021
Закупка автоматических систем пожаротушения для экскаватора Libherr R974C и бульдозера DRESSTA TD40E с комплектом услуг в соответствии с приложениями №1 и №2 2021-888667 7 671.93 USD 23.04.2021
Закупка смазок Mobilux EP0, EP1, EP2, EP3 или аналогов 2021-891294 104 653.68 USD 23.04.2021
Роликодержатель 2021-891657 32 186 USD 23.04.2021
Капитальный ремонт автопогрузчиков марки JUNGHEINRICH 2021-891182 104 000 BYN 23.04.2021
Закупка электротехнической продукции Siemens или аналог 2021-891396 32 642.68 EUR 23.04.2021
Закупка реек направляющих 2021-892393 119 770 USD 23.04.2021
- Ремонт сегментов S1, S2, S3 пароиспарительной системы котла-утилизатора ПГУ-1 рег.№28-21-28 (инв.№064749) ЭнЦ. Текущий ремонт. - Ремонт водоохлаждаемой вставки газохода ДСП-1 (инв.№064749) ЭСПЦ-1. Текущий ремонт. 2021-891384 59 097.89 BYN 26.04.2021
выполнение работ по текущему и капитальному ремонту на объектах "ОАО "БМЗ - управляющая компания холдинга "БМК" 2021-891909 176 273.44 BYN 26.04.2021
Колодки контактные согласно чертежам и техническому заданию 2021-889453 70 407.48 EUR 26.04.2021
Зажимные блоки согласно техническому заданию. Аналоги допускаются 2021-889629 36 133.22 EUR 26.04.2021
Мостовой опорный кран согласно ТЗ (повторный) №42-3040 2021-878984 3 700 000 EUR 27.04.2021
Металлоконструкции согласно приглашению к процедуре закупки № 42/3765 от 16.04.2021 2021-892389 100 034.23 USD 27.04.2021
Закупка механизма боковой загрузки 2021-892269 22 866.72 USD 27.04.2021
Закупка изделия КЛ 1,3 №5 (ГОСТ 5040-96) 2021-891107 15 869.76 USD 27.04.2021
Закупка периклазохромитового мертеля 2021-891102 50 446.06 EUR 27.04.2021
Закупка масла трансформаторного NYTRO 10 XN или аналога 2021-892373 52 361.37 USD 28.04.2021
Подводный грейфер для окалины в соответствии с техническим заданием № 42/629 от 23.03.2021 2021-892341 25 584.20 USD 29.04.2021
Лот 1 - масло ТНК Гидравлик HLP (124957 кг.); лот 2 - масло ТНК Гидравлик HLP (24425 кг.) - (конкурс №15-3049) 2021-891120 191 208.96 USD 30.04.2021
Масло Mobil Vacuoline (конкурс №15-3048) 2021-889924 265 982.40 USD 30.04.2021
Закупка фурм аварийной продувки (согласно требованиям технического задания) 2021-889304 158 400 EUR 03.05.2021

* - В случае указания иной, чем белорусские рубли, валюты, общая стоимость представляет собой сумму стоимостей по лотам, которая рассчитывается исходя из официальных курсов валют Национального банка Республики Беларусь на дату последних изменений в приглашении.